www.pogodaiklimat.ru

Погода и климат >> Архив погоды >> Турция >> Айдын


ПОГОДА в Айдыне

  • Прогноз погоды в Айдыне
  • Монитор погоды в Айдыне

АРХИВ ПОГОДЫ в Айдыне

Время (UTC), дата Ветер
(напр.,м/с)
 
Видим.   Явления Облачность Т
(С)
Тd
(С)
f
(%)
Тe
(С)
Тes
(С)
Комфортность P
(гПа)
Po
(гПа)
Тmin
(С)
Tmax
(С)
R
(мм)
R24
(мм)
S
(см)
03 11.09 В 1
{2}
20 км ясно +21.1 +16.1 73 +24 +24 комфорт 1010.5 1004.1
06 11.09 В 1
{2}
20 км 4/0
[Ci fib]
+23.7 +17.0 66 +27 +32 жарко 1011.8 1005.3 +20.5
07 11.09 В 1 20 км 5/0
[Ci fib]
+26.6 +16.9 55 +30 +38 душно 1012.3 1005.8
08 11.09 В 1 20 км 4/0
[Ci fib]
+27.9 +16.9 51 +32 +44 душно 1012.5 1006.1
09 11.09 Ю 1
{2}
20 км 1/0
[Ci fib]
+29.9 +16.7 45 +33 +50 душно 1012.1 1005.7
10 11.09 ЮЗ 2 20 км ясно +31.3 +16.8 42 +35 +51 опасность
солнечного
удара
1011.7 1005.3
11 11.09 ЮЗ 2 20 км ясно +33.7 +17.8 39 +38 +53 опасность
солнечного
удара
1011.2 1004.8
12 11.09 ЮЗ 2
{5}
20 км 1/0
[Ci fib]
+33.1 +18.4 42 +38 +49 очень
душно
1011.2 1004.8
13 11.09 З 3 20 км 1/0
[Ci fib]
+32.5 +17.1 40 +36 +43 очень
душно
1011.2 1004.8
14 11.09 ЮЗ 2 20 км 1/1 1000 м
[Cu hum]
+31.9 +18.1 44 +36 +41 очень
душно
1011.4 1005.0
15 11.09 ЮЗ 2
{6}
20 км 1/1 1200 м
[Cu hum]
+29.8 +18.0 49 +34 +36 очень
душно
1011.7 1005.2
16 11.09 З 2 20 км 1/1 1000 м
[Cu hum]
+27.5 +17.7 55 +32 +32 очень
душно
1012.2 1005.7
17 11.09 З 2 20 км 1/1 1000 м
[Cu hum]
+25.6 +16.8 58 +29 +29 душно 1012.5 1006.0
18 11.09 ЮЗ 1
{6}
20 км ясно +24.5 +17.3 64 +28 +28 душно 1013.3 1006.8 +34.2
21 11.09 СЗ 1
{4}
20 км ясно +23.3 +18.4 74 +29 +29 душно 1013.9 1007.5
00 12.09 штиль 0
{4}
20 км ясно +22.3 +19.3 83 +28 +28 душно 1013.4 1007.0
03 12.09 Ю 1
{2}
20 км ясно +20.7 +18.9 89 +26 +26 душно 1013.8 1007.3
06 12.09 штиль 0
{2}
20 км ясно +23.1 +18.7 76 +29 +34 очень
душно
1014.3 1007.8 +20.1
07 12.09 ЮВ 1 20 км ясно +25.6 +18.9 66 +31 +39 очень
душно
1014.4 1007.9
08 12.09 Ю 1 20 км ясно +26.6 +17.0 56 +31 +43 душно 1013.8 1007.3
09 12.09 Ю 1 20 км ясно +29.8 +20.4 57 +37 +52 опасность
солнечного
удара
1013.6 1007.2
10 12.09 ЮВ 2 20 км 1/1 1000 м
[Cu hum]
+31.2 +19.7 50 +37 +51 опасность
солнечного
удара
1013.9 1007.5
11 12.09 ЮВ 2 20 км 1/1 1000 м
[Cu hum]
+32.8 +20.5 48 +39 +52 опасность
солнечного
удара
1012.3 1005.9
12 12.09 ЮЗ 2
{5}
20 км 3/3 1200 м
[Cu hum]
+33.3 +20.5 47 +40 +48 очень
душно
1012.2 1005.8
13 12.09 ЮЗ 3 20 км ясно +32.5 +18.7 44 +37 +45 очень
душно
1011.5 1005.1
14 12.09 ЮЗ 3 20 км 1/1 1000 м
[Cu hum]
+31.0 +18.7 48 +36 +40 очень
душно
1011.1 1004.7
15 12.09 ЮЗ 2
{8}
20 км ясно +29.2 +18.4 52 +34 +36 очень
душно
1011.2 1004.7
16 12.09 ЮЗ 2 20 км ясно +27.9 +17.8 54 +32 +32 душно 1011.5 1005.0
17 12.09 ЮЗ 1 20 км ясно +26.2 +17.9 60 +31 +31 очень
душно
1011.8 1005.3
18 12.09 ЮЗ 1
{8}
20 км ясно +25.4 +17.7 62 +30 +30 душно 1012.4 1005.9 +34.0
21 12.09 ЮЗ 1
{4}
20 км 5/0
[Ac trans]
+23.6 +16.9 66 +27 +27 жарко 1013.0 1006.2
00 13.09 ЮВ 1
{4}
20 км 4/0
[Ac trans]
+21.9 +16.0 69 +26 +26 душно 1011.1 1004.7
03 13.09 В 1
{1}
20 км 5/0
[Ac trans]
+20.7 +15.9 74 +25 +25 комфорт 1010.6 1004.1
06 13.09 С 1
{1}
10 км гроза, ливневой дождь 9/5 900 м
[Cb cap Ac As]
+19.9 +19.2 96 +25 +26 комфорт 1011.4 1004.9 +19.8 2
07 13.09 С 1 10 км гроза, ливневой дождь 9/5 600 м
[Cb cap Ac As]
+20.3 +18.9 92 +25 +27 комфорт 1011.9 1005.4
08 13.09 В 1 10 км гроза, ливневой дождь 9/6 600 м
[Cb cap Ac As]
+21.5 +19.7 89 +27 +29 душно 1011.9 1005.4
09 13.09 СЗ 1
{3}
8000 м гроза, ливневой дождь 9/6 900 м
[Cb cap Ac As]
+20.4 +20.2 99 +26 +29 душно 1012.9 1006.4
10 13.09 В 2 6000 м гроза, ливневой дождь 9/6 600 м
[Cb cap Ac As]
+19.8 +19.2 96 +24 +27 комфорт 1013.2 1006.6
11 13.09 СЗ 1 10 км гроза, ливневой дождь 9/6 600 м
[Cb cap Ac As]
+20.3 +19.7 96 +26 +29 душно 1013.0 1006.4
12 13.09 В 1
{3}
20 км гроза без осадков 9/6 900 м
[Cb cap Ac As]
+21.2 +19.8 92 +26 +29 душно 1013.1 1006.6 8
13 13.09 З 1 7000 м гроза, ливневой дождь 9/6 600 м
[Cb cap Ac As]
+20.8 +20.1 96 +27 +28 душно 1013.1 1006.5
14 13.09 штиль 0 10 км гроза, ливневой дождь 9/6 600 м
[Cb cap Ac As]
+19.9 +19.5 98 +23 +24 комфорт 1014.1 1007.5
15 13.09 ЮВ 1
{3}
20 км в посл. час гроза 9/5 1200 м
[Cu med, cong Ac As]
+20.6 +20.2 98 +27 +27 душно 1013.4 1006.8
16 13.09 ЮВ 1 20 км 9/5 1000 м
[Cu med, cong Ac As]
+20.4 +19.7 96 +26 +26 душно 1012.5 1005.9
17 13.09 СВ 2 20 км 9/5 1000 м
[Cu med, cong Ac As]
+20.7 +18.8 89 +26 +26 душно 1012.6 1006.0
18 13.09 В 2
{5}
20 км {гроза} 9/5 1200 м
[Cu med, cong Ac As]
+20.5 +18.0 86 +25 +25 комфорт 1012.5 1005.9 +21.7 10
21 13.09 СЗ 1
{6}
20 км {ливн. осадки} 4/4 1200 м
[Cu med, cong]
+19.8 +17.2 85 +24 +24 комфорт 1013.1 1006.5
00 14.09 штиль 0
{6}
20 км {ливн. осадки} 4/4 1200 м
[Cu med, cong]
+18.3 +17.4 94 +19 +19 1012.5 1005.9 0.1
03 14.09 штиль 0
{1}
20 км 3/3 1200 м
[Cu hum]
+17.7 +16.7 94 +18 +18 1012.1 1005.5
06 14.09 СВ 2
{3}
20 км ясно +21.6 +11.6 53 +24 +27 комфорт 1012.7 1006.1 +16.8 0.1
07 14.09 В 2 20 км ясно +24.5 +11.4 44 +26 +33 жарко 1012.9 1006.4
08 14.09 В 2 20 км ясно +25.9 +12.7 44 +28 +39 жарко 1012.7 1006.2
09 14.09 СВ 1
{6}
20 км ясно +27.2 +12.7 41 +29 +44 жарко 1012.2 1005.7
10 14.09 В 2 20 км ясно +28.3 +12.5 38 +30 +45 жарко 1012.0 1005.5
11 14.09 СВ 1 20 км ясно +29.8 +13.9 38 +32 +48 душно 1011.5 1005.0
12 14.09 В 1
{6}
20 км ясно +30.7 +13.4 35 +32 +45 жарко 1010.9 1004.4
13 14.09 Ю 1 20 км ясно +31.1 +13.7 35 +33 +42 душно 1010.3 1003.8
14 14.09 ЮЗ 1 20 км ясно +31.8 +14.3 35 +34 +39 душно 1009.8 1003.3
15 14.09 Ю 1
{3}
20 км ясно +29.6 +15.3 42 +32 +34 душно 1009.6 1003.1
16 14.09 С 1 20 км ясно +28.7 +13.7 40 +31 +31 жарко 1009.6 1003.1
17 14.09 СЗ 1 20 км ясно +27.2 +13.1 42 +29 +29 жарко 1010.0 1003.5
18 14.09 СВ 1
{4}
20 км ясно +26.4 +13.5 45 +28 +28 жарко 1010.8 1004.3 +32.1
21 14.09 штиль 0
{2}
20 км ясно +21.4 +15.1 67 +25 +25 комфорт 1012.7 1006.2
00 15.09 Ю 1
{2}
20 км ясно +19.8 +14.4 71 +23 +23 комфорт 1012.4 1005.9
03 15.09 штиль 0
{3}
20 км ясно +18.3 +14.2 77 +19 +19 1013.0 1006.5
06 15.09 Ю 1
{4}
20 км ясно +22.4 +12.7 54 +25 +29 комфорт 1014.8 1008.3 +18.0
07 15.09 ЮВ 1 20 км ясно +27.0 +11.8 39 +28 +37 жарко 1015.0 1008.5
08 15.09 СВ 2 20 км ясно +27.7 +12.0 38 +29 +40 жарко 1014.6 1008.1
09 15.09 В 2
{6}
20 км ясно +29.2 +11.2 33 +30 +43 жарко 1014.3 1007.8
10 15.09 В 2 20 км ясно +31.3 +6.3 21 +30 +45 жарко 1013.4 1007.0
11 15.09 В 2 20 км ясно +32.2 +3.1 16 +30 +43 жарко 1012.9 1006.5
12 15.09 В 3
{9}
20 км ясно +33.1 +2.9 15 +30 +40 жарко 1012.5 1006.1
13 15.09 СВ 2 20 км ясно +33.4 +4.1 16 +31 +39 жарко 1012.3 1005.9
14 15.09 СВ 2 20 км ясно +33.1 +2.9 15 +30 +35 жарко 1011.8 1005.4
15 15.09 СВ 1
{5}
20 км ясно +31.7 +3.6 17 +29 +31 жарко 1011.9 1005.4
16 15.09 СВ 1 20 км ясно +30.0 +3.8 19 +28 +28 жарко 1011.9 1005.4
17 15.09 С 1 20 км ясно +26.4 +4.7 25 +26 +26 жарко 1011.8 1005.3
18 15.09 штиль 0
{5}
20 км ясно +25.0 +7.0 32 +25 +25 комфорт 1012.4 1005.9 +34.0
21 15.09 З 1
{2}
20 км ясно +20.9 +12.4 58 +25 +25 комфорт 1013.5 1007.0
00 16.09 штиль 0
{2}
20 км ясно +19.2 +10.8 58 +20 +20 1013.4 1007.0
03 16.09 С 1 20 км ясно +18.6 +10.7 60 +21 +21 комфорт 1013.1 1006.6
06 16.09 В 1
{3}
20 км ясно +21.9 +12.2 54 +24 +28 комфорт 1013.5 1007.0 +17.6
07 16.09 СВ 2 20 км ясно +24.7 +12.6 47 +27 +34 жарко 1013.6 1007.1
08 16.09 В 1 20 км ясно +27.4 +11.7 38 +29 +40 жарко 1013.3 1006.8
09 16.09 В 1
{4}
20 км ясно +29.2 +10.7 32 +30 +45 жарко 1012.9 1006.4
10 16.09 В 2 20 км 1/1 1000 м
[Cu hum]
+30.1 +10.5 30 +30 +43 жарко 1012.5 1006.0
11 16.09 ЮВ 2 20 км 3/3 1000 м
[Cu hum]
+30.9 +11.2 30 +31 +41 жарко 1011.8 1005.3
12 16.09 ЮЗ 1
{5}
20 км 3/3 1200 м
[Cu hum]
+31.1 +10.9 29 +31 +40 жарко 1011.2 1004.7
13 16.09 ЮЗ 1 20 км 3/3 1000 м
[Cu hum]
+31.6 +11.3 29 +32 +38 жарко 1010.7 1004.2
14 16.09 ЮЗ 1 20 км 5/0
[Ci]
+31.6 +11.8 30 +32 +36 жарко 1010.4 1003.9
15 16.09 ЮЗ 1
{4}
20 км 6/4 1200 м
[Cu med, cong Ci fib]
+29.9 +14.4 39 +32 +33 жарко 1010.5 1004.0
16 16.09 ЮЗ 1 20 км 6/4 1000 м
[Cu med, cong Ci fib]
+26.8 +15.2 49 +30 +30 душно 1010.8 1004.3
17 16.09 ЮЗ 1 20 км 6/4 1000 м
[Cu med, cong Ci fib]
+24.4 +15.9 59 +28 +28 душно 1011.0 1004.5
18 16.09 ЮЗ 1
{4}
20 км ясно +23.2 +15.3 61 +27 +27 душно 1011.6 1005.1 +32.5
19 16.09 ЮЗ 1 20 км ясно +22.7 +15.6 64 +27 +27 душно 1012.0 1005.5
20 16.09 штиль 0 20 км ясно +20.8 +15.2 70 +24 +24 комфорт 1012.4 1005.9
21 16.09 штиль 0
{3}
20 км ясно +20.2 +14.4 69 +22 +22 комфорт 1012.5 1006.0
22 16.09 В 1 20 км ясно +20.7 +14.9 69 +25 +25 комфорт 1012.6 1006.1
23 16.09 штиль 0 20 км ясно +19.5 +13.7 69 +21 +21 комфорт 1012.8 1006.3
00 17.09 штиль 0
{3}
20 км ясно +19.1 +13.1 68 +20 +20 1013.0 1006.5
01 17.09 В 1 20 км ясно +18.9 +13.1 69 +21 +21 комфорт 1013.1 1006.6
02 17.09 В 1 20 км ясно +19.5 +13.3 67 +22 +22 комфорт 1013.0 1006.5
03 17.09 В 1
{2}
20 км ясно +18.6 +12.6 68 +21 +21 комфорт 1013.3 1006.8
04 17.09 В 2 20 км ясно +18.3 +12.3 68 +19 +19 1013.5 1007.0
05 17.09 В 1 20 км ясно +18.5 +12.5 68 +20 +21 1014.0 1007.4
06 17.09 В 2
{4}
20 км ясно +20.3 +13.1 63 +23 +27 комфорт 1014.2 1007.6 +18.2
07 17.09 В 3 20 км ясно +22.9 +13.1 54 +26 +32 жарко 1014.2 1007.7
08 17.09 В 2 20 км ясно +25.7 +14.2 49 +28 +39 жарко 1014.2 1007.7
09 17.09 СВ 1
{5}
20 км ясно +29.0 +14.0 40 +31 +46 жарко 1013.9 1007.4
10 17.09 В 1 20 км ясно +31.3 +12.0 31 +32 +48 жарко 1013.5 1007.0
11 17.09 ЮЗ 1 20 км 3/0
[Ci fib]
+32.3 +13.4 32 +33 +48 жарко 1012.9 1006.5
12 17.09 Ю 2
{5}
20 км 1/0
[Ci fib]
+32.8 +12.3 29 +33 +45 жарко 1012.5 1006.1
13 17.09 ЮЗ 2 20 км ясно +33.1 +14.6 33 +35 +43 душно 1012.1 1005.7
14 17.09 ЮЗ 2 20 км ясно +30.4 +16.0 42 +33 +37 душно 1012.3 1005.8
15 17.09 ЮЗ 1
{6}
20 км ясно +28.9 +15.0 43 +31 +33 жарко 1012.5 1006.0
16 17.09 З 1 20 км ясно +27.3 +13.9 44 +29 +29 жарко 1012.7 1006.2
17 17.09 З 2 20 км ясно +25.7 +12.1 43 +27 +27 жарко 1013.2 1006.7
18 17.09 З 1
{6}
20 км ясно +24.4 +13.3 50 +27 +27 жарко 1013.8 1007.3 +34.1
19 17.09 ЮЗ 1 20 км ясно +22.9 +14.0 57 +26 +26 жарко 1014.3 1007.8
20 17.09 ЮЗ 1 20 км ясно +20.3 +15.1 72 +24 +24 комфорт 1014.3 1007.8
21 17.09 ЮЗ 1
{3}
20 км ясно +19.4 +15.1 76 +23 +23 комфорт 1014.3 1007.8
22 17.09 штиль 0 20 км ясно +19.6 +14.7 73 +21 +21 комфорт 1014.3 1007.8
23 17.09 штиль 0 20 км ясно +18.7 +14.0 74 +19 +19 1014.2 1007.7
00 18.09 СВ 1
{3}
20 км ясно +18.9 +14.2 74 +22 +22 комфорт 1014.2 1007.7

 

Местоположение метеостанции Айдын (Турция): широта 37.85 долгота 27.85 высота над уровнем моря 56 м.

В архиве по умолчанию представлена погода в Айдыне за последнюю неделю. Архивные данные за месяц целиком и за предыдущие месяцы, начиная с января 2011 года, Вы можете получить, выбрав интересующий диапазон дат из раскрывающегося списка и нажав кнопку "Ввод!".


*Определитесь, кто Вы:
робот инопланетянин человек

Внимание! Время в таблицах - всемирное. Для получения местного времени необходимо прибавить поправку, которая равна 2 ч.

Смотрите также архив погоды в соседних городах и на ближайших метеорологических станциях:

Погода в Кушадасы (Турция) (53 км)
Погода в Аэропорту Милас-Бодрум (Турция) (71 км)
Погода в Измир аэропорту (Турция) (77 км)
Погода на Самосе (Греция) (83 км)
Погода в Мугле (Турция) (84 км)
Погода в Измире (Турция) (88 км)
Погода в Манисе (Турция) (93 км)
Погода в Бодруме (Турция) (98 км)
Погода в Измир / Сигли (Турция) (102 км)
Погода в Денизли (Турция) (108 км)

Пояснения к столбцам:

Ветер - указаны скорость ветра в м/с - средняя за 10 мин, порывы в срок и между сроками (в фигурных скобках) и направление, откуда дует ветер: С - северный, СВ - северо-восточный, В - восточный, ЮВ - юго-восточный, Ю - южный, ЮЗ - юго-западный, З - западный, СЗ - северо-западный.
Видимость - горизонтальная дальность видимости в метрах или километрах. При видимости от 1 до 10 км при отсутствии осадков обычно наблюдается дымка, при ухудшении видимости до 1 км и менее - туман. В сухую погоду видимость может ухудшаться дымом, пылью или мглою.
Явления - указаны атмосферные явления, наблюдавшиеся в срок или в последний час перед сроком; фигурными скобками обозначены явления, наблюдавшиеся между сроками (за 1-3 часа до срока); квадратными скобками обозначены град или гололедные отложения с указанием их диаметра в мм.
Облачность - указаны через наклонную черту общая и нижняя облачность в баллах и высота нижней границы облаков в метрах; квадратными скобками обозначены формы облаков: Ci - перистые, Cs - перисто-слоистые, Cc - перисто-кучевые, Ac - высококучевые, As - высокослоистые, Sc - слоисто-кучевые, Ns - слоисто-дождевые, Cu - кучевые, Cb - кучево-дождевые. Подробнее классификацию облаков см. в Атласе облаков (PDF).
T - Температура воздуха - температура, измеренная на высоте 2 м над землей.
Td - Температура точки росы - температура, при понижении до которой содержащийся в воздухе водяной пар достигнет насыщения.
f - Относительная влажность воздуха - влажноcть воздуха, измеренная на высоте 2 м над землей.
Te - Эффективная температура - температура, которую ощущает одетый по сезону человек в тени. Характеристика душности погоды. При расчете учитывается влияние влажности воздуха и скорости ветра на теплоощущения человека.
Tes - Эффективная температура на солнце - температура, которую ощущает человек, с поправкой на солнечный нагрев. Характеристика знойности погоды. Зависит от высоты солнца над горизонтом, облачности и скорости ветра. Ночью, в пасмурную погоду, а также при ветре 12 м/с и более поправка равна нулю.
P - Атмосферное давление - приведенное к уровню моря атмосферное давление.
Po - Атмосферное давление - измеренное на уровне метеостанции атмосферное давление.
Tmin - Минимальная температура - минимум температуры воздуха на высоте 2 м над землей.
Tmax - Максимальная температура - максимум температуры воздуха на высоте 2 м над землей.
R - Количество осадков - Количество выпавших осадков за период времени, мм. При наведении курсора мыши на число - период времени, за который выпало указанное количество осадков.
R24 - Количество осадков - Количество выпавших осадков за 24 часа, мм.
S - Снежный покров - Высота снежного покрова, см. При наведении курсора мыши на число - состояние снежного покрова и степень покрытия местности в баллах.